Location: Festilli
(46.4000°N, 11.6667°E)
Time: 09:16:15
(UTC+00:00)

Cosmos 1515 - Visible Passes

Search period start: 16 June 2021 00:00
Search period end: 26 June 2021 00:00
Orbit: 506 x 513 km, 82.5° (Epoch: 15 June)

Date Brightness Start Highest point End Pass type
(mag) Time Alt. Az. Time Alt. Az. Time Alt. Az.
22 Jun 6.1 02:40:45 10° NNE 02:44:02 27° ENE 02:47:19 10° SE visible
23 Jun 6.4 02:24:00 10° NNE 02:27:02 22° ENE 02:30:02 10° ESE visible
24 Jun 6.6 02:07:21 10° NNE 02:10:00 18° ENE 02:12:39 10° ESE visible
25 Jun 6.7 01:50:47 10° NNE 01:52:58 14° ENE 01:55:07 10° ESE visible
